When you browse on this site, cookies collect data to enhance your experience and personalize the content and advertising you see.
Visit our Privacy Policy to learn more. By continuing to use the site, you agree to this use of cookies and data.

Météo par heure à Landau in der Pfalz

Ce jour, 9 Juillet, Jeudi

Heure Température Précipitation Vent Pression Humidité
00:00 +18°C° 0.1 mm 1 m/s 748 mmHg 90%
01:00 +16°C° 0 mm 0 m/s 748 mmHg 89%
02:00 +18°C° 0 mm 1 m/s 748 mmHg 90%
03:00 +18°C° 0 mm 1 m/s 748 mmHg 91%
04:00 +19°C° 0 mm 1 m/s 747 mmHg 91%
05:00 +19°C° 0 mm 1 m/s 747 mmHg 91%
06:00 +19°C° 0 mm 1 m/s 747 mmHg 92%
07:00 +20°C° 0 mm 1 m/s 747 mmHg 92%
08:00 +20°C° 0 mm 2 m/s 747 mmHg 84%
09:00 +23°C° 0 mm 2 m/s 748 mmHg 77%
10:00 +25°C° 0 mm 3 m/s 748 mmHg 69%
11:00 +26°C° 0.1 mm 3 m/s 747 mmHg 64%
12:00 +27°C° 0.1 mm 4 m/s 747 mmHg 59%
13:00 +28°C° 0.1 mm 4 m/s 747 mmHg 54%
14:00 +29°C° 0 mm 4 m/s 746 mmHg 52%
15:00 +29°C° 0 mm 5 m/s 746 mmHg 50%
16:00 +30°C° 0 mm 5 m/s 746 mmHg 48%
17:00 +29°C° 0 mm 4 m/s 745 mmHg 54%
18:00 +28°C° 0 mm 4 m/s 745 mmHg 59%
19:00 +27°C° 0 mm 3 m/s 745 mmHg 64%
20:00 +25°C° 0 mm 3 m/s 745 mmHg 71%
21:00 +23°C° 0 mm 2 m/s 745 mmHg 78%
22:00 +21°C° 0 mm 2 m/s 746 mmHg 85%
23:00 +20°C° 0 mm 2 m/s 745 mmHg 86%

Demain, 10 Juillet, Vendredi

Heure Température Précipitation Vent Pression Humidité
00:00 +20°C° 0 mm 2 m/s 745 mmHg 88%
01:00 +19°C° 0 mm 2 m/s 745 mmHg 89%
02:00 +19°C° 0 mm 2 m/s 745 mmHg 90%
03:00 +19°C° 0 mm 2 m/s 744 mmHg 90%
04:00 +19°C° 0 mm 2 m/s 744 mmHg 91%
05:00 +20°C° 0 mm 2 m/s 744 mmHg 87%
06:00 +21°C° 0 mm 3 m/s 744 mmHg 83%
07:00 +22°C° 0 mm 3 m/s 744 mmHg 80%
08:00 +23°C° 0 mm 4 m/s 744 mmHg 74%
09:00 +25°C° 0 mm 5 m/s 744 mmHg 68%
10:00 +26°C° 0 mm 5 m/s 744 mmHg 62%
11:00 +26°C° 0.1 mm 6 m/s 744 mmHg 59%
12:00 +27°C° 0.1 mm 6 m/s 744 mmHg 56%
13:00 +27°C° 0.1 mm 6 m/s 744 mmHg 54%
14:00 +26°C° 0 mm 6 m/s 744 mmHg 54%
15:00 +24°C° 0 mm 6 m/s 745 mmHg 55%
16:00 +25°C° 0 mm 5 m/s 745 mmHg 56%
17:00 +23°C° 0 mm 4 m/s 745 mmHg 61%
18:00 +22°C° 0 mm 3 m/s 745 mmHg 66%
19:00 +21°C° 0 mm 3 m/s 745 mmHg 71%
20:00 +20°C° 0.1 mm 2 m/s 746 mmHg 75%
21:00 +19°C° 0.1 mm 2 m/s 747 mmHg 79%
22:00 +17°C° 0.1 mm 2 m/s 748 mmHg 83%
23:00 +17°C° 0 mm 2 m/s 748 mmHg 83%

Après-demain, 11 Juillet, Samedi

Heure Température Précipitation Vent Pression Humidité
00:00 +16°C° 0 mm 2 m/s 748 mmHg 83%
01:00 +16°C° 0 mm 2 m/s 748 mmHg 83%
02:00 +15°C° 0 mm 2 m/s 749 mmHg 84%
03:00 +15°C° 0 mm 2 m/s 749 mmHg 84%
04:00 +15°C° 0 mm 2 m/s 750 mmHg 85%
05:00 +15°C° 0 mm 2 m/s 750 mmHg 83%
06:00 +15°C° 0 mm 2 m/s 750 mmHg 80%
07:00 +16°C° 0 mm 2 m/s 751 mmHg 77%
08:00 +17°C° 0 mm 2 m/s 751 mmHg 69%
09:00 +19°C° 0 mm 3 m/s 751 mmHg 61%
10:00 +20°C° 0 mm 3 m/s 752 mmHg 53%
11:00 +21°C° 0 mm 3 m/s 752 mmHg 48%
12:00 +22°C° 0 mm 3 m/s 752 mmHg 44%
13:00 +24°C° 0 mm 3 m/s 752 mmHg 39%
14:00 +24°C° 0 mm 3 m/s 752 mmHg 39%
15:00 +24°C° 0 mm 3 m/s 752 mmHg 38%
16:00 +24°C° 0 mm 3 m/s 752 mmHg 38%
17:00 +22°C° 0 mm 3 m/s 752 mmHg 42%
18:00 +21°C° 0 mm 2 m/s 752 mmHg 47%
19:00 +21°C° 0 mm 2 m/s 752 mmHg 52%
20:00 +19°C° 0 mm 2 m/s 753 mmHg 54%
21:00 +17°C° 0 mm 2 m/s 753 mmHg 56%
22:00 +16°C° 0 mm 2 m/s 753 mmHg 59%
23:00 +15°C° 0 mm 2 m/s 753 mmHg 61%

12 Juillet, Dimanche

Heure Température Précipitation Vent Pression Humidité
00:00 +14°C° 0 mm 2 m/s 754 mmHg 62%
01:00 +14°C° 0 mm 2 m/s 754 mmHg 64%
02:00 +13°C° 0 mm 2 m/s 754 mmHg 67%
03:00 +13°C° 0 mm 2 m/s 754 mmHg 69%
04:00 +13°C° 0 mm 1 m/s 754 mmHg 72%
05:00 +14°C° 0 mm 2 m/s 754 mmHg 69%
06:00 +15°C° 0 mm 2 m/s 754 mmHg 67%
07:00 +16°C° 0 mm 2 m/s 754 mmHg 65%
08:00 +18°C° 0 mm 2 m/s 754 mmHg 58%
09:00 +19°C° 0 mm 3 m/s 754 mmHg 52%
10:00 +21°C° 0 mm 3 m/s 754 mmHg 46%
11:00 +22°C° 0 mm 3 m/s 754 mmHg 43%
12:00 +24°C° 0 mm 3 m/s 754 mmHg 40%
13:00 +25°C° 0 mm 3 m/s 754 mmHg 36%
14:00 +25°C° 0 mm 3 m/s 753 mmHg 36%
15:00 +25°C° 0 mm 3 m/s 753 mmHg 36%
16:00 +25°C° 0 mm 3 m/s 753 mmHg 36%
17:00 +25°C° 0 mm 3 m/s 753 mmHg 41%
18:00 +24°C° 0 mm 2 m/s 753 mmHg 47%
19:00 +23°C° 0 mm 2 m/s 753 mmHg 52%
20:00 +20°C° 0 mm 2 m/s 753 mmHg 56%
21:00 +18°C° 0 mm 2 m/s 753 mmHg 59%
22:00 +16°C° 0 mm 1 m/s 753 mmHg 63%
23:00 +16°C° 0 mm 2 m/s 753 mmHg 65%

13 Juillet, Lundi

Heure Température Précipitation Vent Pression Humidité
00:00 +15°C° 0 mm 2 m/s 753 mmHg 67%
01:00 +15°C° 0 mm 2 m/s 753 mmHg 69%
02:00 +14°C° 0 mm 2 m/s 753 mmHg 71%
03:00 +14°C° 0 mm 2 m/s 753 mmHg 72%
04:00 +13°C° 0 mm 2 m/s 753 mmHg 74%
05:00 +14°C° 0 mm 2 m/s 753 mmHg 72%
06:00 +15°C° 0 mm 2 m/s 753 mmHg 69%
07:00 +16°C° 0 mm 2 m/s 753 mmHg 67%
08:00 +18°C° 0 mm 3 m/s 752 mmHg 60%
09:00 +20°C° 0 mm 3 m/s 752 mmHg 54%
10:00 +22°C° 0 mm 3 m/s 752 mmHg 48%
11:00 +24°C° 0 mm 3 m/s 752 mmHg 44%
12:00 +25°C° 0 mm 3 m/s 751 mmHg 40%
13:00 +26°C° 0 mm 3 m/s 751 mmHg 36%
14:00 +26°C° 0 mm 3 m/s 751 mmHg 36%
15:00 +26°C° 0 mm 3 m/s 750 mmHg 36%
16:00 +26°C° 0 mm 3 m/s 750 mmHg 36%
17:00 +25°C° 0 mm 3 m/s 750 mmHg 41%
18:00 +24°C° 0 mm 3 m/s 749 mmHg 46%
19:00 +23°C° 0 mm 2 m/s 749 mmHg 52%
20:00 +21°C° 0 mm 2 m/s 749 mmHg 55%
21:00 +19°C° 0 mm 2 m/s 749 mmHg 58%
22:00 +18°C° 0 mm 1 m/s 749 mmHg 61%
23:00 +16°C° 0 mm 1 m/s 749 mmHg 63%

14 Juillet, Mardi

Heure Température Précipitation Vent Pression Humidité
00:00 +16°C° 0 mm 1 m/s 749 mmHg 66%
01:00 +15°C° 0 mm 2 m/s 749 mmHg 68%
02:00 +15°C° 0 mm 2 m/s 748 mmHg 71%
03:00 +15°C° 0 mm 2 m/s 748 mmHg 74%
04:00 +14°C° 0 mm 2 m/s 748 mmHg 77%
05:00 +15°C° 0 mm 2 m/s 748 mmHg 74%
06:00 +16°C° 0 mm 2 m/s 748 mmHg 72%
07:00 +17°C° 0 mm 2 m/s 748 mmHg 69%
08:00 +19°C° 0 mm 3 m/s 748 mmHg 63%
09:00 +21°C° 0 mm 3 m/s 748 mmHg 57%
10:00 +24°C° 0 mm 3 m/s 747 mmHg 51%
11:00 +25°C° 0 mm 3 m/s 747 mmHg 47%
12:00 +26°C° 0 mm 3 m/s 747 mmHg 43%
13:00 +27°C° 0 mm 3 m/s 747 mmHg 39%
14:00 +28°C° 0 mm 3 m/s 746 mmHg 38%
15:00 +28°C° 0 mm 3 m/s 746 mmHg 38%
16:00 +28°C° 0 mm 3 m/s 746 mmHg 37%
17:00 +27°C° 0 mm 3 m/s 745 mmHg 43%
18:00 +26°C° 0 mm 3 m/s 745 mmHg 49%
19:00 +25°C° 0 mm 2 m/s 745 mmHg 55%
20:00 +24°C° 0 mm 2 m/s 745 mmHg 58%
21:00 +21°C° 0 mm 2 m/s 746 mmHg 62%
22:00 +20°C° 0 mm 2 m/s 746 mmHg 66%
23:00 +19°C° 0 mm 2 m/s 746 mmHg 69%
Voir plus